Regional Weather Roundup
Issued by NWS Sioux Falls, SD

Home | Current Version | Previous Version | Graphics & Text | Print | Product List | Glossary Off
Versions: 1 2 3 4 5 6 7 8 9 10 11 12 13 14 15 16 17 18 19 20 21 22 23 24 25 26 27 28 29 30 31 32 33 34 35 36 37 38 39 40 41 42 43 44 45 46 47 48 49 50

000
ASUS43 KFSD 250802
RWRFSD

WEATHER ROUNDUP FOR SE SOUTH DAKOTA/SW MINNESOTA/NW IOWA
NATIONAL WEATHER SERVICE SIOUX FALLS SD
300 AM CDT SAT APR 25 2015

NOTE: "FAIR" INDICATES FEW OR NO CLOUDS BELOW 12,000 FEET WITH NO
SIGNIFICANT WEATHER AND OR OBSTRUCTIONS TO VISIBILITY.


SDZ038>040-050-052>070-250900-
SOUTHEAST SOUTH DAKOTA

CITY           SKY/WX    TMP DP  RH WIND       PRES   REMARKS
BROOKINGS      CLOUDY    46  45  93 E13       29.65R
CHAMBERLAIN    NOT AVBL
HURON          CLOUDY    53  48  83 E8        29.60R
MADISON        LGT RAIN  45  45 100 SE16G25   29.62F
MITCHELL       CLOUDY    50  48  93 E20G28    29.57F
SIOUX FALLS    CLOUDY    47  45  93 E15       29.62F
WINNER         PTSUNNY   55  45  68 S10       29.54F
YANKTON        CLOUDY    52  48  87 NE13      29.57F
$$

MNZ071-072-080-081-089-090-097-098-250900-
SOUTHWEST MINNESOTA

CITY           SKY/WX    TMP DP  RH WIND       PRES   REMARKS
FAIRMONT       CLOUDY    45  18  33 E15       29.69F
JACKSON        CLOUDY    45  39  81 E14       29.69S
LUVERNE        CLOUDY    46  43  87 NE9       29.65F
MARSHALL       CLOUDY    45  37  76 E15       29.69F
MONTEVIDEO     CLOUDY    43  43 100 SE13      29.74F FOG
REDWOOD FALLS  CLOUDY    44  40  85 E9        29.73S
TRACY          CLOUDY    45  42  88 E15G21    29.70F
WORTHINGTON    CLOUDY    45  39  81 E15       29.68F
$$

IAZ001>003-012>014-020>022-031-032-NEZ013-014-SDZ071-250900-
NORTHWEST IOWA

CITY           SKY/WX    TMP DP  RH WIND       PRES   REMARKS
DENISON        CLOUDY    46  46 100 E16G23    29.52F FOG
ESTHERVILLE    CLOUDY    43  40  89 E17       29.67S
SIOUX CITY     CLOUDY    52  48  86 E12       29.55F
SPENCER        CLOUDY    46  42  86 E17       29.64S
$$

ABBREVIATIONS USED IN REMARKS
   TC - TEMPERATURE IN CELSIUS
  WCI - WIND CHILL INDEX
   HX - HEAT INDEX
  VSB - VISIBILITY



USA.gov is the U.S. government's official web portal to all federal, state and local government web resources and services.